Regional Weather Roundup
Issued by NWS

Home | Current Version | Previous Version | Graphics & Text | Print | Product List | Glossary On
Versions: 1 2 3 4 5 6 7 8 9 10 11 12 13 14 15 16 17 18 19 20 21 22 23 24 25 26 27 28 29 30 31 32 33 34 35 36 37 38 39 40 41 42 43 44 45 46 47 48 49 50
000
ASUS43 KLMK 260410
RWRKY
KENTUCKY REGIONAL WEATHER ROUNDUP
NATIONAL WEATHER SERVICE LOUISVILLE KY
1200 AM EDT SAT JUL 26 2014

NOTE "FAIR" INDICATES FEW OR NO CLOUDS BELOW 12,000 FEET
WITH NO SIGNIFICANT WEATHER AND/OR OBSTRUCTIONS TO VISIBILITY.

KYZ001>023-026-027-061>063-070>075-260500-
WESTERN AND SOUTH CENTRAL KENTUCKY

CITY           SKY/WX    TMP DP  RH WIND       PRES   REMARKS
PADUCAH        CLEAR     67  63  87 SE3       29.97R
HENDERSON      CLEAR     63  57  82 CALM      29.98S
OWENSBORO      CLEAR     69  61  76 CALM      30.00S
HOPKINSVILLE   MOCLDY    70  64  80 CALM      30.00S
BOWLING GREEN  MOCLDY    73  61  65 SE3       30.02R
GLASGOW        MOCLDY    67  60  78 CALM      30.02S
$$

KYZ024-025-028>034-038-045-046-053-260500-
NORTH CENTRAL KENTUCKY

CITY           SKY/WX    TMP DP  RH WIND       PRES   REMARKS
LOUISVILLE/SDF MOCLDY    75  60  59 SE6       30.00S
LOUISVILLE/LOU MOCLDY    73  60  63 CALM      30.01S
FORT KNOX      CLOUDY    67  63  84 CALM      30.01R
$$

KYZ035>037-039>044-047>052-055>060-089>105-260500-
NORTHEAST KENTUCKY

CITY           SKY/WX    TMP DP  RH WIND       PRES   REMARKS
LEXINGTON      MOCLDY    70  60  70 SE5       30.03R
COVINGTON      MOCLDY    66  59  78 SW3       30.02R
FRANKFORT      MOCLDY    69  60  73 SW5       30.01R
$$

KYZ054-064>069-076>088-106>120-260500-
SOUTHEAST KENTUCKY

CITY           SKY/WX    TMP DP  RH WIND       PRES   REMARKS
JACKSON        PTCLDY    67  57  70 CALM      30.05R
LONDON         PTCLDY    66  62  87 CALM      30.06R
SOMERSET       PTCLDY    63  63 100 CALM      30.05F
MIDDLESBORO    MOCLDY    65  64  94 CALM      30.07S
MONTICELLO     CLEAR     61  61 100 CALM      30.06S FOG
$$



USA.gov is the U.S. government's official web portal to all federal, state and local government web resources and services.